Location: Central Falls
(41.8900°N, 71.3929°W)
Time: 06:52:56
(UTC+00:00)

Vanguard 3 - Pass Details

Date: 11 December 2023
Orbit: 508 x 3239 km, 33.4° (Epoch: 01 March)

Event Time Altitude Azimuth Distance (km) Brightness Sun altitude
Rises 21:48:14 0° 204° (SSW) 7,143 12.8 -6.4°
Reaches altitude 10° 21:54:19 10° 194° (SSW) 6,163 12.2 -7.4°
Maximum altitude 22:08:39 27° 146° (SSE) 4,520 10.8 -9.8°
Drops below altitude 10° 22:20:13 10° 98° (E) 4,983 10.6 -11.9°
Enters shadow 22:21:00 - 95° (E) 5,086 10.6 -12.0°
